Location: Moy Burn
(57.3833°N, 4.0667°W)
Time: 12:42:43
(UTC+00:00)

Cosmos 1242 Rocket - Pass Details

Date: 08 August 2020
Orbit: 448 x 486 km, 81.2° (Epoch: 22 September)

Event Time Altitude Azimuth Distance (km) Brightness Sun altitude
Rises 23:39:06 0° 341° (NNW) 2,527 7.9 -16.3°
Reaches altitude 10° 23:41:14 10° 336° (NNW) 1,651 6.5 -16.4°
Maximum altitude 23:44:43 48° 261° (W) 637 3.1 -16.4°
Enters shadow 23:46:00 32° 208° (SSW) 847 3.3 -16.5°
